Shreveport, LA

2:00 PM CDT on August 27, 2016 (GMT -0500)
Barksdale Air Force Base

Weather History for KBAD - February, 2013

Change the Weather History Date:

Saturday, February 16, 2013

  Actual Average Record
Temperature  
Mean Temperature 42 °F -  
Max Temperature 52 °F 59 °F 77 °F (2000)
Min Temperature 31 °F 41 °F 19 °F (2007)
Degree Days  
Heating Degree Days 23    
Moisture  
Dew Point 22 °F    
Average Humidity 47    
Maximum Humidity 77    
Minimum Humidity 24    
Precipitation  
Precipitation 0.00 in - - ()
Sea Level Pressure  
Sea Level Pressure 30.32 in    
Wind  
Wind Speed 9 mph (NNW)    
Max Wind Speed 21 mph    
Max Gust Speed 29 mph    
Visibility 10 miles    
Events      
Averages and records for this station are not official NWS values.
T = Trace of Precipitation, MM = Missing Value Source: NWS Daily Summary

Daily Weather History Graph

Daily Weather History Graph

Search for Another Location

Airport or City:

Trip Planner

Search our weather history database for the weather conditions in past years. The results will help you decide how hot, cold, wet, or windy it might be!

Date:

Astronomy

Feb. 16, 2013 Rise Set
Actual Time 6:56 AM CST 6:01 PM CST
Civil Twilight 6:31 AM CST 6:26 PM CST
Nautical Twilight 6:02 AM CST 6:55 PM CST
Astronomical Twilight 5:33 AM CST 7:24 PM CST
Moon 10:34 AM CST (2/16) No Moon Set
Length of Visible Light 11h 55m
Length of Day
11h 05m
Waxing Crescent, 39% of the Moon is Illuminated
Feb 16
Waxing Crescent
Feb 17
First Quarter
Feb 25
Full
Mar 4
Last Quarter
Mar 11
New

Hourly Weather History & Observations

Time (CST) Temp. Windchill Dew Point Humidity Pressure Visibility Wind Dir Wind Speed Gust Speed Precip Events Conditions
12:58 AM 37.6 °F 32.3 °F 21.0 °F 51% 30.32 in 10.0 mi North 6.9 mph - N/A   Clear
1:58 AM 35.1 °F 29.3 °F 21.4 °F 57% 30.34 in 10.0 mi North 6.9 mph - N/A   Clear
2:58 AM 33.8 °F 28.6 °F 20.8 °F 59% 30.35 in 10.0 mi NNW 5.8 mph - N/A   Clear
3:58 AM 32.7 °F 27.3 °F 21.6 °F 64% 30.35 in 10.0 mi North 5.8 mph - N/A   Mostly Cloudy
4:58 AM 32.2 °F 27.7 °F 21.6 °F 65% 30.35 in 10.0 mi North 4.6 mph - N/A   Mostly Cloudy
5:58 AM 33.4 °F 28.1 °F 21.7 °F 62% 30.35 in 10.0 mi North 5.8 mph - N/A   Mostly Cloudy
6:58 AM 33.8 °F - 21.9 °F 62% 30.36 in 10.0 mi North 1.2 mph - N/A   Mostly Cloudy
7:58 AM 36.0 °F 31.1 °F 22.8 °F 59% 30.38 in 10.0 mi NW 5.8 mph - N/A   Partly Cloudy
8:58 AM 41.0 °F 34.7 °F 23.9 °F 51% 30.39 in 10.0 mi NW 10.4 mph - N/A   Partly Cloudy
9:58 AM 43.7 °F 37.3 °F 27.9 °F 54% 30.39 in 10.0 mi NNW 12.7 mph - N/A   Clear
10:58 AM 46.6 °F - 27.0 °F 46% 30.38 in 10.0 mi NNW 18.4 mph 24.2 mph N/A   Clear
11:58 AM 49.3 °F - 26.1 °F 40% 30.36 in 10.0 mi NNW 18.4 mph - N/A   Partly Cloudy
12:03 PM 48.2 °F - 24.8 °F 40% 30.35 in 10.0 mi North 20.7 mph - N/A   Partly Cloudy
12:58 PM 50.7 °F - 21.6 °F 32% 30.34 in 10.0 mi NNW 18.4 mph 28.8 mph N/A   Clear
1:35 PM 51.8 °F - 21.2 °F 30% 30.31 in 10.0 mi NW 17.3 mph 24.2 mph N/A   Clear
1:58 PM 51.8 °F - 20.8 °F 30% 30.31 in 10.0 mi NNW 13.8 mph 17.3 mph N/A   Clear
2:19 PM 51.8 °F - 17.6 °F 26% 30.29 in 10.0 mi WNW 19.6 mph 25.3 mph N/A   Clear
2:58 PM 52.2 °F - 16.0 °F 24% 30.29 in 10.0 mi NW 16.1 mph 21.9 mph N/A   Clear
3:06 PM 51.8 °F - 17.6 °F 26% 30.28 in 10.0 mi North 18.4 mph - N/A   Clear
3:58 PM 52.5 °F - 18.1 °F 26% 30.27 in 10.0 mi NNW 11.5 mph 19.6 mph N/A   Clear
4:58 PM 51.1 °F - 16.5 °F 25% 30.26 in 10.0 mi NNW 8.1 mph 20.7 mph N/A   Clear
5:58 PM 46.9 °F - 18.9 °F 33% 30.27 in 10.0 mi NW 9.2 mph - N/A   Clear
6:58 PM 46.4 °F 45.2 °F 17.1 °F 31% 30.27 in 10.0 mi North 3.5 mph - N/A   Clear
7:58 PM 40.5 °F - 22.6 °F 49% 30.27 in 10.0 mi South 1.2 mph - N/A   Clear
8:58 PM 35.6 °F - 26.1 °F 68% 30.27 in 10.0 mi SE 2.3 mph - N/A   Clear
9:58 PM 34.5 °F - 24.1 °F 66% 30.28 in 10.0 mi Calm Calm - N/A   Clear
10:58 PM 34.5 °F - 25.5 °F 70% 30.27 in 10.0 mi Calm Calm - N/A   Clear
11:58 PM 31.6 °F 28.3 °F 25.2 °F 77% 30.26 in 10.0 mi SSE 3.5 mph - N/A   Clear